Flag for Canada Weather past 2 weeks in London, Ontario, Canada

52 °F


Feels Like: 47 °F
Forecast: N/A
Wind: 15 mph from North

Location: London Weather Station

Current Time: Oct 9, 2015 at 5:06:19 PM

Latest Report: Oct 9, 2015 at 4:00 PM

Visibility: 15 mi

Pressure: 30.00 "Hg

Humidity: 88%

Dew point: 48 °F

Location of LondonLocation

Historic Weather in London — Graph


London temperature yesterday

Maximum temperature yesterday: 64 °F (at 3:00 PM)
Minimum temperature yesterday: 37 °F (at 7:00 AM)
Average temperature yesterday: 51 °F

Past Weeks' High & Low Weather Summary

High77 °F (Sep 24, 3:00 PM)100% (Sep 27, 3:00 AM)30.42 "Hg (Sep 27, 3:00 AM)
Low37 °F (Oct 8, 7:00 AM)39% (Oct 1, 4:00 PM)29.80 "Hg (Oct 9, 5:00 AM)
Average57 °F80%30.19 "Hg
* Reported Sep 24 3:00 PM — Oct 9 3:00 PM, London, Weather by CustomWeather, © 2015

Note: Actual official high and low records may vary slightly from our data, if they occured in-between our weather recording intervals... More about our weather records


London weather history for previous 24 hours

Time TempWeatherWind HumidityBarometerVisibility
3:00 PM
Fri, Oct 9
54 °FOvercast.14 mph82%29.97 "Hg15 mi
2:00 PM55 °FMostly cloudy.15 mph82%29.96 "Hg15 mi
1:45 PM55 °FMostly cloudy.13 mph82%29.96 "Hg15 mi
1:00 PM55 °FOvercast.14 mph82%29.95 "Hg15 mi
12:00 PM55 °FMostly cloudy.13 mph88%29.93 "Hg10 mi
11:00 AM55 °FSprinkles. Fog.12 mph94%29.91 "Hg5 mi
10:00 AM57 °FMostly cloudy.12 mph94%29.88 "Hg12 mi
9:00 AM59 °FMore clouds than sun.13 mph88%29.86 "Hg10 mi
8:00 AM59 °FMostly cloudy.8 mph94%29.83 "Hg8 mi
7:00 AM61 °FFog.7 mph94%29.82 "Hg4 mi
6:00 AM61 °FFog.10 mph94%29.81 "Hg3 mi
5:46 AM61 °FFog.9 mph94%29.80 "Hg3 mi
5:00 AM59 °FFog.7 mph100%29.80 "Hg2 mi
4:00 AM55 °FFog.2 mph100%29.80 "Hg2 mi
3:00 AM55 °FSprinkles. Fog.6 mph100%29.83 "Hg5 mi
2:00 AM55 °FSprinkles. Fog.5 mph94%29.85 "Hg5 mi
1:00 AM55 °FSprinkles. Overcast.3 mph94%29.86 "Hg10 mi
12:00 AM55 °FMostly cloudy.8 mph94%29.86 "Hg12 mi
11:00 PM
Thu, Oct 8
54 °FPartly cloudy.10 mph94%29.88 "Hg15 mi
10:00 PM55 °FSprinkles. Overcast.10 mph94%29.91 "Hg15 mi
9:00 PM57 °FSprinkles. Overcast.12 mph88%29.96 "Hg15 mi
8:00 PM61 °FOvercast.9 mph77%29.95 "Hg15 mi
7:00 PM61 °FOvercast.12 mph72%29.97 "Hg15 mi
6:00 PM63 °FMostly cloudy.10 mph68%29.99 "Hg15 mi
5:00 PM64 °FMostly cloudy.8 mph68%30.01 "Hg15 mi
Weather by CustomWeather, © 2015

See weather overviewHow to use our weather pages